GW3457 Weather Reports


time (UTC)temp
C
wind
direction
speed
KPH
gust
KPH
rain 1hr
cm
rain 24hr
cm
rain mn
cm
humidity
%
barometer
mb
20260903230055 29 0 0.0 3.2 0.00 0.15 0.13 72 1014.1
20260903224622 30 0 0.0 1.6 0.00 0.15 0.13 71 1013.9
20260903223057 31 0 0.0 1.6 0.00 0.15 0.13 68 1013.9
20260903221552 31 0 0.0 4.8 0.00 0.15 0.13 66 1014.1
20260903214606 32 234 3.2 8.0 0.00 0.15 0.13 58 1013.6
20260903213102 33 212 1.6 9.7 0.03 0.15 0.13 57 1013.6
20260903211555 32 223 4.8 16.1 0.03 0.15 0.13 59 1013.8
20260903210122 32 238 3.2 14.5 0.03 0.15 0.13 58 1013.8
20260903204551 33 262 6.4 14.5 0.00 0.15 0.10 58 1013.8
20260903203111 32 160 1.6 14.5 0.00 0.15 0.10 59 1014.1
20260903201554 32 242 4.8 17.7 0.00 0.15 0.10 61 1014.4
20260903200055 31 83 4.8 14.5 0.00 0.15 0.10 61 1014.5
20260903194550 31 241 8.0 17.7 0.00 0.15 0.10 63 1014.8
20260903193057 30 250 8.0 27.4 0.00 0.15 0.10 63 1015.1
20260903191551 30 229 12.9 27.4 0.00 0.15 0.10 64 1015.4
20260903184601 30 149 8.0 27.4 0.03 0.18 0.10 67 1015.9
20260903183053 29 221 6.4 20.9 0.03 0.18 0.10 67 1016.0
20260903181601 28 212 6.4 17.7 0.03 0.18 0.10 70 1016.1
20260903180056 27 149 3.2 25.7 0.03 0.18 0.10 74 1016.3
20260903174554 26 230 11.3 25.7 0.00 0.15 0.08 74 1016.5
20260903173050 26 316 4.8 19.3 0.00 0.15 0.08 78 1016.7
20260903171559 25 143 4.8 12.9 0.00 0.15 0.08 79 1017.0
20260903170055 24 144 6.4 12.9 0.00 0.15 0.08 82 1017.1
20260903164550 23 236 4.8 14.5 0.00 0.18 0.08 84 1017.3
20260903163052 23 257 4.8 14.5 0.00 0.18 0.08 86 1017.8
20260903161558 23 219 1.6 12.9 0.03 0.18 0.08 88 1018.1
20260903160104 22 256 8.0 16.1 0.03 0.18 0.08 87 1018.5
20260903154605 22 268 4.8 16.1 0.03 0.20 0.08 89 1019.0
20260903153103 22 247 4.8 14.5 0.03 0.20 0.08 88 1019.0
20260903151601 22 234 4.8 14.5 0.00 0.18 0.05 90 1019.1
20260903150049 22 136 1.6 6.4 0.00 0.18 0.05 91 1019.3
20260903144603 21 15 3.2 6.4 0.00 0.20 0.05 93 1019.3
20260903143106 21 21 3.2 14.5 0.00 0.20 0.05 93 1019.2
20260903141601 21 25 6.4 22.5 0.00 0.20 0.05 92 1019.6
20260903140056 21 13 6.4 20.9 0.03 0.20 0.05 92 1020.2
20260903134552 21 28 3.2 16.1 0.03 0.25 0.05 92 1018.1
20260903133058 21 0 6.4 16.1 0.03 0.25 0.05 91 1018.8
20260903131605 21 17 4.8 12.9 0.03 0.25 0.05 91 1018.7
20260903124600 21 17 3.2 11.3 0.00 0.30 0.03 93 1018.3
20260903123053 21 15 6.4 11.3 0.00 0.30 0.03 93 1018.7
20260903121551 20 25 1.6 14.5 0.00 0.30 0.03 93 1018.8
20260903120050 20 34 4.8 12.9 0.03 0.30 0.03 93 1019.0
20260903114604 21 23 1.6 8.0 0.03 0.41 0.03 92 1019.1
20260903113053 21 35 1.6 25.7 0.03 0.41 0.03 89 1019.7
20260903111550 21 46 4.8 8.0 0.03 0.41 0.03 90 1020.1
20260903104557 21 350 0.0 12.9 0.00 0.51 0.00 94 1019.3
20260903103057 20 360 4.8 9.7 0.00 0.51 0.00 94 1019.2
20260903101556 20 34 1.6 12.9 0.00 0.51 0.00 94 1018.7
20260903100104 20 348 8.0 17.7 0.00 0.51 0.00 95 1018.4
20260903094551 20 32 6.4 12.9 0.00 0.84 0.00 94 1018.4
20260903093107 20 348 3.2 8.0 0.00 0.84 0.00 94 1017.7
20260903091549 20 28 1.6 8.0 0.00 0.84 0.00 94 1017.5
20260903090058 20 351 4.8 12.9 0.00 0.84 0.00 94 1017.3
20260903084553 20 48 6.4 16.1 0.00 0.84 0.00 94 1017.4
20260903083053 20 39 3.2 6.4 0.00 0.84 0.00 94 1017.2
20260903081602 20 42 1.6 4.8 0.00 0.84 0.00 94 1016.9
20260903080059 20 0 0.0 1.6 0.00 0.84 0.00 94 1016.7
20260903074552 20 0 0.0 3.2 0.00 0.84 0.00 94 1016.5
20260903073051 20 40 0.0 3.2 0.00 0.84 0.00 94 1016.6
20260903071610 20 0 0.0 3.2 0.00 0.84 0.00 93 1016.6
20260903064551 21 351 1.6 4.8 0.00 0.84 0.00 93 1016.6
20260903063113 21 350 1.6 6.4 0.00 0.84 0.00 93 1017.0
20260903061602 21 54 3.2 6.4 0.00 0.84 0.00 93 1016.5
20260903060110 21 0 0.0 3.2 0.00 0.84 0.00 93 1016.4
20260903054553 21 166 1.6 8.0 0.00 0.84 0.00 93 1016.3
20260903053050 21 218 3.2 6.4 0.00 0.84 0.00 93 1016.3
20260903051600 21 28 0.0 3.2 0.00 0.84 0.00 93 1016.5
20260903050126 21 0 0.0 3.2 0.00 0.84 0.00 92 1016.6
20260903044603 21 14 0.0 3.2 0.00 0.84 0.00 92 1016.7
20260903043059 21 0 0.0 0.0 0.00 0.84 0.00 93 1016.8
20260903041556 22 0 0.0 4.8 0.00 0.84 0.00 92 1016.8
20260903040058 22 10 1.6 8.0 0.00 0.84 0.00 92 1017.3
20260903034547 22 12 4.8 11.3 0.00 0.84 0.84 92 1017.4
20260903033057 22 16 0.0 4.8 0.00 0.84 0.84 92 1017.2
20260903031552 22 39 1.6 4.8 0.00 0.84 0.84 92 1016.7
20260903030050 22 0 0.0 1.6 0.00 0.84 0.84 91 1016.7
20260903024548 22 0 0.0 3.2 0.00 0.84 0.84 91 1017.1
20260903023054 22 34 0.0 1.6 0.00 0.84 0.84 91 1016.9
20260903021552 22 0 0.0 0.0 0.00 0.84 0.84 90 1016.9
20260903020054 22 0 0.0 1.6 0.00 0.84 0.84 90 1017.0
20260903014553 23 36 0.0 3.2 0.00 0.84 0.84 90 1017.0
20260903013050 23 0 1.6 4.8 0.03 0.84 0.84 89 1017.0
20260903011609 23 22 3.2 8.0 0.03 0.84 0.84 89 1016.9
20260903010052 23 0 3.2 9.7 0.03 0.84 0.84 88 1016.9
20260903004601 23 214 3.2 6.4 0.03 0.84 0.84 86 1016.8
20260903003059 25 227 0.0 6.4 0.00 0.81 0.81 84 1017.1
20260903001556 26 218 1.6 4.8 0.00 0.81 0.81 80 1017.3
20260903000051 26 144 0.0 6.4 0.00 0.81 0.81 76 1017.5
20260902234551 27 19 4.8 11.3 0.00 0.81 0.81 70 1017.8
20260902233058 27 0 1.6 11.3 0.00 0.81 0.81 69 1017.9
20260902231603 27 156 6.4 14.5 0.00 0.81 0.81 68 1017.7